Weather History for Houma, LA

Change the Weather History Date:

Saturday, May 18, 2013

  Actual Average Record
Temperature  
Mean Temperature 79 °F -  
Max Temperature 84 °F 84 °F 100 °F (1998)
Min Temperature 74 °F 67 °F 51 °F (1945)
Cooling Degree Days 14    
Growing Degree Days 29 (Base 50)    
Moisture  
Dew Point 69 °F    
Average Humidity 77    
Maximum Humidity 89    
Minimum Humidity 55    
Precipitation  
Precipitation 0.00 in - - ()
Sea Level Pressure  
Sea Level Pressure 30.02 in    
Wind  
Wind Speed 7 mph (SSE)    
Max Wind Speed 12 mph    
Max Gust Speed -    
Visibility 7 miles    
Events      
Averages and records for this station are not official NWS values.
T = Trace of Precipitation, MM = Missing Value Source: NWS Daily Summary

Daily Weather History Graph

Daily Weather History Graph

Search for Another Location

Airport:

Trip Planner

Search our weather history database for the weather conditions in past years. The results will help you decide how hot, cold, wet, or windy it might be!

Date:

Astronomy

May. 18, 2013 Rise Set
Actual Time 6:08 AM CDT 7:50 PM CDT
Civil Twilight 5:42 AM CDT 8:16 PM CDT
Nautical Twilight 5:10 AM CDT 8:48 PM CDT
Astronomical Twilight 4:37 AM CDT 9:21 PM CDT
Moon 1:23 PM CDT (5/18) 1:28 AM CDT (5/18)
Length of Visible Light 14h 34m
Length of Day
13h 42m
First Quarter, 55% of the Moon is Illuminated
May 18
First Quarter
May 24
Full
May 31
Last Quarter
Jun 8
New
Jun 16
First Quarter

Hourly Weather History & Observations

Time (CDT) Temp. Heat Index Dew Point Humidity Pressure Visibility Wind Dir Wind Speed Gust Speed Precip Events Conditions
12:15 AM 76.3 °F - 70.3 °F 82% 30.04 in 7.0 mi South 6.9 mph - N/A   Scattered Clouds
12:35 AM 76.3 °F - 70.2 °F 81% 30.04 in 7.0 mi South 8.1 mph - N/A   Scattered Clouds
12:55 AM 76.3 °F - 70.7 °F 83% 30.03 in 7.0 mi South 6.9 mph - N/A   Mostly Cloudy
1:15 AM 76.3 °F - 70.7 °F 83% 30.02 in 7.0 mi South 9.2 mph - N/A   Mostly Cloudy
1:35 AM 76.3 °F - 70.7 °F 83% 30.02 in 7.0 mi South 8.1 mph - N/A   Mostly Cloudy
1:55 AM 76.1 °F - 70.3 °F 82% 30.01 in 7.0 mi South 10.4 mph - N/A   Scattered Clouds
2:15 AM 76.1 °F - 70.7 °F 83% 30.00 in 7.0 mi South 9.2 mph - N/A   Clear
2:35 AM 75.7 °F - 70.7 °F 84% 30.00 in 7.0 mi South 9.2 mph - N/A   Clear
2:55 AM 75.7 °F - 70.9 °F 85% 29.99 in 7.0 mi South 8.1 mph - N/A   Scattered Clouds
3:15 AM 75.6 °F - 70.7 °F 85% 29.99 in 7.0 mi SSE 6.9 mph - N/A   Scattered Clouds
3:35 AM 75.4 °F - 70.7 °F 85% 29.99 in 7.0 mi South 6.9 mph - N/A   Mostly Cloudy
3:55 AM 75.7 °F - 70.7 °F 84% 29.99 in 7.0 mi South 4.6 mph - N/A   Overcast
4:15 AM 75.9 °F - 70.5 °F 83% 29.99 in 7.0 mi South 6.9 mph - N/A   Overcast
4:35 AM 75.7 °F - 70.3 °F 83% 29.99 in 7.0 mi South 5.8 mph - N/A   Mostly Cloudy
4:55 AM 75.7 °F - 70.2 °F 83% 30.00 in 7.0 mi South 5.8 mph - N/A   Mostly Cloudy
5:15 AM 75.6 °F - 70.2 °F 83% 30.01 in 7.0 mi South 4.6 mph - N/A   Mostly Cloudy
5:35 AM 74.8 °F - 70.2 °F 85% 30.01 in 7.0 mi South 5.8 mph - N/A   Scattered Clouds
5:55 AM 74.5 °F - 70.0 °F 86% 30.00 in 5.0 mi South 5.8 mph - N/A   Clear
6:50 AM 75.2 °F - 71.6 °F 89% 30.02 in 5.0 mi South 5.8 mph - N/A   Scattered Clouds
7:50 AM 77.0 °F - 71.6 °F 83% 30.04 in 5.0 mi South 9.2 mph - N/A   Scattered Clouds
8:50 AM 78.8 °F - 69.8 °F 74% 30.06 in 7.0 mi South 9.2 mph - N/A   Mostly Cloudy
9:55 AM 78.8 °F - 68.0 °F 69% 30.07 in 7.0 mi SSW 11.5 mph - N/A   Mostly Cloudy
10:55 AM 82.4 °F 86.3 °F 69.8 °F 66% 30.07 in 7.0 mi South 11.5 mph - N/A   Scattered Clouds
11:50 AM 82.4 °F 86.3 °F 69.8 °F 66% 30.07 in 7.0 mi SSE 9.2 mph - N/A   Scattered Clouds
12:50 PM 84.2 °F 88.4 °F 69.8 °F 62% 30.07 in 7.0 mi SSE 8.1 mph - N/A   Mostly Cloudy
1:50 PM 84.2 °F 88.4 °F 69.8 °F 62% 30.04 in 7.0 mi SSE 6.9 mph - N/A   Scattered Clouds
2:50 PM 84.2 °F 87.3 °F 68.0 °F 58% 30.03 in 7.0 mi SSE 6.9 mph - N/A   Scattered Clouds
5:50 PM 84.2 °F 86.6 °F 66.2 °F 55% 30.03 in 7.0 mi SSE 6.9 mph - N/A   Partly Cloudy
6:50 PM 82.4 °F 84.6 °F 66.2 °F 58% 30.03 in 7.0 mi SSE 6.9 mph - N/A   Partly Cloudy
7:15 PM 80.2 °F 82.8 °F 68.0 °F 66% 30.01 in 7.0 mi SE 6.9 mph - N/A   Clear
7:35 PM 78.6 °F - 68.0 °F 70% 30.02 in 7.0 mi SE 4.6 mph - N/A   Clear
7:55 PM 76.5 °F - 68.0 °F 75% 30.02 in 7.0 mi SE 4.6 mph - N/A   Clear
8:15 PM 75.2 °F - 68.0 °F 78% 30.02 in 7.0 mi SE 3.5 mph - N/A   Clear
8:35 PM 75.0 °F - 66.9 °F 76% 30.02 in 10.0 mi SE 4.6 mph - N/A   Clear
8:55 PM 74.8 °F - 67.1 °F 77% 30.02 in 10.0 mi ESE 4.6 mph - N/A   Clear
9:15 PM 74.7 °F - 68.0 °F 80% 30.02 in 7.0 mi SE 5.8 mph - N/A   Clear
9:35 PM 74.8 °F - 68.0 °F 79% 30.01 in 7.0 mi SE 5.8 mph - N/A   Clear
9:55 PM 74.7 °F - 68.2 °F 80% 30.02 in 7.0 mi SE 4.6 mph - N/A   Clear
10:15 PM 75.4 °F - 68.9 °F 80% 30.02 in 7.0 mi ESE 6.9 mph - N/A   Clear
10:35 PM 75.6 °F - 68.5 °F 79% 30.02 in 7.0 mi SE 6.9 mph - N/A   Clear
10:55 PM 75.2 °F - 68.0 °F 78% 30.02 in 10.0 mi SE 4.6 mph - N/A   Clear
11:15 PM 74.3 °F - 68.0 °F 81% 30.02 in 10.0 mi SSE 5.8 mph - N/A   Clear
11:35 PM 75.6 °F - 68.9 °F 80% 30.01 in 7.0 mi SSE 5.8 mph - N/A   Scattered Clouds
11:55 PM 76.1 °F - 69.8 °F 81% 30.01 in 10.0 mi SSE 5.8 mph - N/A   Scattered Clouds